GFSMW_con_lsi_057.txt.gz
Lid_Strength_Index
4 3 3 2 2 2 2 2 2 2 3 4 3 4 3 4 3 2 1 1 0 1 1 1 1 2 2 2 2 2 3 3 2 3 3 3 2 2 1 1 1 1 0
4 4 4 3 3 3 2 2 2 2 2 2 2 2 2 2 2 1 1 0 0 1 1 2 2 2 2 2 2 2 3 3 3 4 4 6 4 2 2 2 2 2 1
4 4 4 4 3 3 3 2 2 2 2 2 2 2 2 2 2 2 2 1 0 1 1 1 2 2 2 2 2 2 4 4 4 2 4 6 7 5 3 3 2 2 2
5 4 4 4 4 3 2 2 2 2 2 1 2 3 3 4 3 2 2 1 1 1 1 1 2 1 2 2 2 2 3 3 4 3 2 3 4 6 7 4 3 2 2
5 5 4 4 4 4 3 2 2 2 2 2 2 2 3 3 3 2 2 2 2 1 1 2 1 1 2 2 2 2 2 3 3 4 4 4 4 4 5 7 5 3 2
6 4 4 4 4 4 4 3 2 2 2 2 2 2 3 3 3 3 3 2 2 2 2 1 1 1 1 1 2 2 2 3 3 3 3 4 4 5 5 6 5 5 3
6 5 5 5 5 5 5 4 3 3 2 2 2 2 2 2 3 3 2 3 3 3 2 1 1 1 1 1 1 2 2 2 2 3 3 3 3 3 3 4 5 5 4
7 6 5 5 5 4 4 4 3 3 2 2 2 2 2 2 2 2 2 2 2 2 2 1 1 1 1 2 1 2 2 2 2 3 3 3 3 2 3 3 4 6 5
6 5 6 5 4 4 4 4 4 3 3 2 2 2 2 2 2 2 2 2 2 2 2 1 1 1 1 2 2 2 2 2 2 2 3 3 3 2 2 2 3 4 7
5 6 6 5 4 3 4 3 4 3 3 2 2 2 2 2 2 2 3 3 2 1 1 1 1 2 2 2 2 2 2 2 2 2 2 3 2 2 2 2 2 3 4
5 6 6 5 4 4 4 4 5 3 3 3 2 2 2 2 2 2 2 2 1 1 1 1 2 2 2 2 2 2 2 2 2 2 2 2 2 2 2 2 2 3 3
6 6 7 5 5 4 4 4 4 3 3 2 2 2 2 2 2 2 2 1 1 1 2 2 2 1 1 2 2 2 2 2 2 2 2 2 1 2 2 2 2 2 3
6 6 6 5 5 4 4 4 3 3 2 2 3 2 3 3 3 4 3 2 2 3 2 2 2 1 1 1 1 2 2 2 2 2 2 2 2 2 2 2 2 3 2
6 6 5 5 5 4 4 4 3 3 3 3 3 3 3 3 2 3 3 3 2 2 2 1 1 1 1 1 1 1 1 1 2 2 2 3 2 2 2 2 2 2 2
7 7 6 6 5 5 4 3 3 3 2 3 3 3 2 2 2 3 3 2 2 2 2 2 2 1 1 1 1 1 2 2 3 3 3 2 2 2 2 2 2 2 3
6 6 5 5 5 5 4 4 3 3 3 3 3 2 2 2 2 3 3 2 2 2 2 2 2 3 3 9 7 3 2 2 3 4 3 2 2 3 5 4 4 2 3
5 6 6 5 4 4 4 4 3 3 3 3 3 2 2 2 3 2 2 3 3 2 2 2 2 4 5 9 8 6 2 3 3 3 3 2 1 2 2 5 5 5 5
5 6 5 4 4 3 3 3 3 3 3 3 3 2 2 2 2 2 2 2 2 2 2 2 3 5 6 9 7 7 2 3 3 3 3 2 2 3 2 2 3 3 3
5 5 5 4 3 3 3 3 3 3 3 3 3 2 2 3 3 3 2 2 2 3 3 2 4 5 5 9 8 6 2 2 3 2 2 2 2 8 8 2 3 4 4
6 4 4 3 3 3 3 4 3 3 3 3 3 2 2 2 2 2 2 2 2 2 2 2 2 5 5 10 9 6 2 3 3 3 3 9 5 10 8 2 3 3 3
5 5 4 4 4 3 3 4 3 3 3 2 2 2 2 2 2 2 2 2 2 2 2 2 3 3 5 7 10 8 1 2 2 3 4 5 10 10 10 6 2 3 3
6 5 4 4 3 3 3 4 4 3 2 2 2 2 2 2 2 2 2 2 2 3 4 3 2 2 4 8 10 11 6 5 3 3 4 7 11 11 9 6 10 8 5
5 5 5 4 3 3 3 4 3 2 2 2 3 3 2 2 2 2 3 3 2 3 3 3 3 3 4 6 11 11 9 6 4 4 7 12 11 11 9 10 9 6 2
4 5 5 4 4 3 3 3 2 2 2 3 3 3 3 3 2 2 2 3 3 3 3 3 3 3 2 4 6 6 6 9 8 9 8 8 8 8 7 6 4 2 2
4 4 4 4 4 3 3 2 2 2 3 3 3 3 3 3 6 8 8 4 5 5 3 3 2 3 3 3 4 4 4 5 7 6 4 4 4 3 3 3 2 3 2
4 4 4 4 4 3 3 2 2 2 3 3 3 3 3 4 4 5 7 13 13 12 10 8 4 4 8 9 9 9 10 11 11 5 5 5 4 3 3 2 3 2 3

GFSMW_con_lsi_060.txt.gz
Lid_Strength_Index
5 4 4 3 4 2 2 3 2 2 1 2 2 2 2 2 1 1 1 1 1 1 2 3 3 2 3 3 3 3 3 3 3 4 4 3 2 3 2 2 2 1 1
6 6 4 4 4 3 2 2 2 2 2 2 2 2 2 2 2 1 2 2 1 1 1 2 2 2 2 3 3 3 4 4 4 5 4 5 4 3 2 2 2 2 2
7 6 5 4 4 3 3 2 2 2 2 1 2 5 4 4 3 3 3 2 0 0 1 1 2 2 2 3 3 3 4 4 4 3 3 6 7 6 4 3 3 3 3
7 7 6 5 6 3 2 2 2 2 2 3 3 4 3 4 3 3 2 1 1 1 1 1 2 2 3 3 3 3 4 4 4 3 2 3 4 6 7 4 3 3 3
7 8 7 5 4 4 3 2 2 3 3 3 3 2 3 3 2 2 2 2 2 1 1 2 3 2 2 3 3 3 3 2 3 3 4 4 4 4 6 7 5 4 3
7 7 7 6 5 3 3 2 2 2 2 2 2 2 3 3 3 3 3 3 3 2 2 2 2 2 2 2 2 3 3 3 4 4 4 4 5 5 5 6 6 5 4
6 6 6 6 6 4 5 3 3 3 2 2 2 2 2 2 3 3 3 3 3 3 3 2 2 2 2 2 2 2 2 3 3 3 4 4 4 4 4 5 6 5 5
6 5 5 5 6 5 3 5 4 3 2 2 2 2 2 2 2 2 2 2 2 2 2 2 2 1 1 2 2 2 3 3 3 4 4 4 4 3 4 4 5 6 6
6 5 5 5 4 5 4 5 4 3 3 2 2 2 2 2 2 2 2 2 2 2 2 2 2 1 2 2 2 2 3 3 4 3 3 4 4 3 3 3 4 5 7
5 5 5 6 6 6 5 4 4 4 2 2 2 2 2 2 2 2 2 3 3 2 2 2 2 2 2 2 3 3 3 3 3 3 3 3 3 3 2 2 3 4 5
6 5 5 6 5 4 4 4 4 4 3 3 2 2 2 2 2 2 2 2 2 3 2 2 2 2 2 2 3 3 3 3 3 3 3 3 3 2 3 2 3 3 4
6 5 6 6 7 4 4 4 5 5 3 2 2 2 2 2 2 2 2 3 3 2 1 1 2 2 2 3 3 3 2 2 3 3 3 3 2 3 3 2 3 3 4
6 6 6 7 7 4 4 4 4 4 3 2 3 3 2 2 2 3 3 3 2 2 2 2 2 2 2 3 3 2 2 3 3 3 3 3 3 3 3 2 2 2 3
6 6 7 7 7 4 4 4 5 3 3 3 3 3 3 3 3 3 3 2 2 2 3 3 2 2 2 2 1 2 2 3 3 2 3 3 3 2 2 2 2 2 3
6 7 6 5 5 5 4 4 3 3 3 3 3 4 3 4 4 4 4 3 2 2 3 3 2 2 2 2 2 2 2 3 3 3 3 3 2 2 3 2 2 2 3
6 5 5 5 5 5 4 4 4 3 3 3 3 3 3 3 4 4 5 5 4 4 4 3 3 3 3 8 5 3 3 3 4 4 4 3 3 3 5 4 3 2 3
6 6 6 5 5 4 4 4 3 3 3 3 3 3 3 3 3 4 3 4 4 4 4 4 4 4 5 10 9 7 3 3 4 4 4 3 1 3 2 5 6 5 5
7 6 6 5 4 3 3 3 3 3 3 3 3 3 3 3 3 3 3 3 3 3 3 4 4 5 7 10 9 6 3 4 3 4 3 3 2 2 2 2 2 3 3
7 6 6 5 3 3 3 3 3 5 3 3 3 3 3 3 3 3 3 3 2 2 2 3 5 6 6 10 9 5 3 4 4 3 3 3 2 9 8 2 3 4 4
7 6 6 5 4 3 3 3 4 4 4 3 3 3 3 3 3 3 3 2 2 2 2 4 5 6 5 10 10 6 3 4 3 3 4 9 4 10 9 3 3 4 4
7 6 6 6 5 3 3 4 4 4 3 2 3 3 2 3 2 3 2 3 2 2 3 4 5 5 5 7 11 9 3 3 3 3 4 5 10 11 10 7 2 4 4
7 6 6 5 5 3 3 4 4 3 3 3 2 2 3 2 2 2 3 2 3 3 4 3 3 5 5 9 11 10 7 5 3 3 4 6 11 11 10 7 10 9 5
7 6 6 5 4 3 3 4 3 3 2 3 3 3 2 2 2 3 3 3 3 3 3 3 3 4 5 6 11 12 10 8 4 3 7 12 12 11 10 11 9 7 2
7 6 5 5 4 3 3 3 2 2 3 3 3 3 3 3 3 2 2 3 3 4 3 3 3 3 4 5 5 6 7 9 7 9 8 8 8 8 8 6 4 2 2
7 6 5 5 4 3 3 2 2 2 3 3 3 3 3 4 6 8 6 3 4 4 3 4 3 3 4 5 6 6 4 4 7 6 4 4 4 4 3 3 2 2 2
6 6 4 4 4 3 3 2 2 2 3 3 3 3 4 5 6 6 8 14 13 12 11 8 4 4 7 10 10 11 11 11 11 4 4 4 3 3 3 3 3 3 3

GFSMW_con_lsi_063.txt.gz
Lid_Strength_Index
9 8 7 5 4 4 3 3 3 3 2 2 2 2 2 2 1 1 1 1 1 1 3 3 3 3 4 4 4 5 5 4 4 4 5 4 3 2 3 3 2 2 1
10 9 8 8 7 5 3 3 2 2 2 2 1 2 2 1 1 1 2 1 1 1 2 3 3 3 4 4 4 4 5 4 3 4 5 6 5 4 3 3 3 2 2
9 8 8 9 8 7 5 3 3 2 2 1 2 4 3 4 3 3 3 2 1 0 1 2 3 3 3 4 4 4 4 5 4 3 3 6 7 5 5 4 3 3 3
9 9 8 8 9 9 7 4 2 2 1 1 2 2 3 3 3 3 3 2 3 2 1 1 2 2 2 3 3 3 4 4 4 3 2 3 4 6 7 5 4 3 3
7 7 7 7 6 7 8 6 2 2 2 2 2 2 5 3 5 4 3 3 2 1 1 1 1 2 2 3 3 4 4 3 3 3 4 4 4 5 5 7 6 4 3
7 7 6 5 5 5 7 4 3 2 2 2 2 2 2 4 4 3 3 2 2 2 1 1 2 2 3 3 3 3 4 4 4 3 3 3 5 6 6 7 6 5 4
8 8 7 6 5 5 5 6 3 3 2 2 3 3 3 4 4 4 2 3 3 3 2 2 3 3 3 3 3 3 3 3 4 5 5 5 5 5 5 6 6 6 5
8 8 7 6 5 5 5 5 4 3 2 2 2 3 4 4 4 3 2 2 2 2 2 3 2 2 2 3 3 2 3 3 4 4 4 5 5 5 4 5 6 7 6
8 8 7 6 5 5 5 5 5 3 3 2 2 3 4 4 2 2 2 2 2 2 2 2 2 2 2 3 3 3 3 3 4 4 4 5 5 4 4 4 4 5 7
7 7 5 5 5 5 6 5 6 3 2 3 3 3 2 2 2 2 2 2 2 2 2 3 3 3 2 2 2 3 3 4 4 4 4 4 4 4 4 4 4 5 5
6 5 5 4 5 8 6 5 7 4 3 5 4 3 2 2 2 2 2 2 2 2 2 2 3 3 2 3 3 3 3 4 4 4 4 4 4 4 3 3 4 4 5
5 5 5 5 6 7 9 6 5 4 4 3 3 2 2 2 2 2 2 2 2 2 2 3 3 2 2 3 3 3 3 4 4 3 4 3 3 3 3 4 4 4 4
5 5 5 6 5 5 7 4 4 5 5 3 3 3 3 2 2 2 2 2 2 2 2 2 2 2 2 3 3 3 3 3 3 3 3 3 3 4 4 4 3 4 3
6 5 5 5 4 5 5 4 4 4 4 3 3 3 3 2 2 2 2 2 2 3 3 2 1 2 2 3 4 3 3 3 3 3 3 3 3 4 3 3 2 3 3
6 6 5 5 6 4 4 4 3 3 3 3 3 3 3 2 2 2 2 2 2 3 2 2 2 3 3 3 3 2 3 3 4 4 3 3 3 3 3 2 2 3 3
7 6 5 5 5 5 4 4 3 3 3 3 3 3 3 3 2 2 2 3 3 3 2 3 3 4 3 8 7 4 3 3 4 4 4 4 4 4 5 4 4 3 3
7 7 6 6 6 6 4 4 3 4 4 3 3 3 3 4 4 4 4 3 4 3 4 5 4 5 5 10 8 6 2 3 4 5 5 4 3 3 3 6 6 5 6
8 7 7 7 7 6 6 3 3 4 5 3 3 3 3 4 4 4 5 5 5 5 6 5 5 5 7 11 10 8 4 4 4 4 4 4 3 3 3 3 2 2 3
8 8 6 6 6 6 4 3 3 3 4 4 3 3 3 4 4 5 6 5 5 6 6 5 5 6 7 11 11 5 4 4 4 4 4 3 2 7 8 2 3 3 4
8 8 7 7 6 6 5 3 4 3 4 5 3 2 2 3 4 4 4 4 3 4 4 5 5 7 6 11 10 5 4 4 4 4 4 8 5 10 10 2 3 4 4
8 7 7 7 6 5 5 4 4 4 3 2 2 2 3 3 3 4 3 3 3 4 4 5 5 5 6 8 11 9 4 3 3 3 4 5 11 11 11 7 3 4 4
8 7 8 7 6 5 4 4 4 3 2 2 3 3 3 3 3 3 3 2 3 4 5 5 5 5 5 9 11 11 8 6 3 3 4 6 11 12 11 7 11 10 6
8 8 7 7 5 5 3 4 3 3 4 3 3 4 4 3 3 3 3 3 3 3 4 4 5 5 5 7 12 11 11 9 4 4 7 11 12 12 11 11 10 8 3
8 8 7 6 6 5 3 3 3 4 3 3 3 3 3 3 3 2 3 3 3 3 3 4 4 4 5 5 5 7 7 9 7 9 8 9 9 8 8 7 4 2 3
8 7 7 7 6 5 3 2 3 2 3 3 3 3 3 3 5 7 5 3 4 4 3 3 3 4 5 5 6 6 4 4 6 6 4 4 5 4 4 3 3 3 2
7 6 6 5 5 3 3 3 2 2 3 4 3 3 4 4 5 6 8 14 13 12 11 9 5 5 8 11 11 10 11 11 10 4 4 4 4 4 3 3 3 3 4

GFSMW_con_lsi_069.txt.gz
Lid_Strength_Index
7 6 5 4 5 4 3 3 3 1 0 1 1 1 2 1 0 0 -0 -0 -1 -1 -0 0 0 -0 1 0 -0 0 1 1 1 2 2 1 0 0 -0 -0 -0 -1 -1
7 7 6 5 4 4 3 3 3 2 1 1 1 1 1 1 0 -0 -0 -0 -0 -0 0 0 0 0 0 0 0 0 1 1 1 2 2 4 3 1 0 0 0 -0 -1
6 6 6 5 4 4 3 3 3 2 2 -0 0 1 0 1 1 1 1 0 -0 -0 -0 0 0 0 0 1 1 1 1 2 1 1 2 5 5 3 1 1 0 -0 0
6 5 4 4 5 5 4 3 2 2 1 1 0 1 2 2 2 1 1 0 -0 -0 -0 -0 0 0 0 1 1 0 1 1 2 1 1 1 1 4 5 1 1 0 0
5 5 5 4 4 3 4 4 2 2 1 1 0 1 2 1 1 1 1 1 0 -0 -0 -0 -0 0 0 0 0 1 1 1 2 2 2 2 2 1 3 5 3 1 0
5 4 4 4 4 3 3 3 3 2 2 2 1 1 1 2 2 2 2 1 1 1 0 -0 0 -0 0 0 0 0 0 1 1 1 2 2 3 3 3 4 3 3 1
4 5 5 4 3 3 2 2 1 2 2 3 2 1 1 1 2 2 2 2 2 1 1 0 0 0 0 0 0 0 0 1 1 1 1 1 2 1 2 3 3 3 2
4 4 3 3 3 2 2 2 2 2 1 1 1 1 1 1 1 1 1 1 1 1 0 0 0 0 0 0 0 0 1 0 1 1 1 1 1 1 1 2 3 4 3
4 4 3 3 2 2 2 2 2 1 1 1 1 1 1 1 2 1 1 1 1 1 0 0 0 0 0 0 0 1 1 0 1 1 1 1 1 0 0 1 1 3 5
4 4 3 3 2 2 2 1 1 2 1 1 1 1 1 1 1 1 1 1 1 0 1 1 0 0 0 0 0 1 0 1 1 1 1 1 1 0 0 1 1 1 2
4 4 3 2 2 2 2 2 2 2 2 1 1 1 1 1 1 1 1 1 1 1 1 1 1 1 1 0 1 1 1 1 1 2 1 1 0 1 1 1 1 1 1
4 3 3 3 2 2 2 2 2 2 2 1 1 2 1 1 1 1 1 1 1 0 1 1 1 1 1 1 1 1 1 1 2 2 1 1 1 1 0 1 1 1 1
4 3 3 3 3 2 2 2 2 3 2 2 2 2 2 1 1 1 1 1 1 1 1 1 1 1 1 1 1 1 1 1 1 1 1 1 1 1 1 1 1 1 1
4 4 4 3 3 2 2 2 2 3 3 3 4 4 2 1 1 1 1 1 1 1 1 1 1 1 1 1 1 1 1 2 2 1 1 1 1 1 1 1 1 1 1
5 4 4 3 3 3 2 2 2 3 3 4 5 5 2 1 1 1 1 1 1 1 1 1 1 1 1 1 1 1 1 2 1 1 0 0 1 2 1 1 1 1 2
5 4 4 4 4 3 3 3 4 4 3 4 6 5 2 2 2 1 1 1 1 1 1 1 1 1 1 9 7 3 1 1 1 1 1 0 2 2 5 4 4 2 1
4 4 4 4 4 4 5 5 5 4 4 4 5 5 2 2 2 2 2 2 2 2 2 1 1 1 1 10 9 7 1 1 1 1 1 1 0 1 0 5 6 4 5
4 4 4 5 5 5 6 5 5 4 4 7 5 4 2 2 2 2 2 2 2 2 2 2 1 1 1 11 11 8 0 1 1 0 0 1 1 0 1 1 1 1 0
4 4 4 5 6 6 5 6 6 5 5 6 4 4 3 3 3 3 2 2 2 2 2 2 2 2 6 12 12 4 1 1 1 1 0 0 1 7 8 1 2 2 1
3 4 4 6 6 6 6 6 6 5 5 4 2 2 3 3 3 2 2 2 2 2 2 3 1 6 4 14 11 4 1 1 1 1 0 8 2 10 10 1 1 3 3
4 4 5 6 6 6 6 6 5 5 4 3 2 2 2 2 2 2 2 2 2 2 4 5 4 3 3 7 11 9 1 1 2 2 2 1 9 11 11 7 1 2 3
5 5 5 6 6 5 6 6 6 4 4 2 2 2 2 2 2 3 3 3 2 4 5 4 4 3 4 8 11 10 6 4 1 2 1 3 11 12 11 7 10 10 5
6 6 6 6 5 5 5 6 6 5 4 2 3 2 2 2 2 3 4 3 3 4 4 3 3 4 4 4 11 11 10 7 1 1 5 11 12 12 10 11 11 8 2
7 6 7 7 6 5 4 5 5 4 2 3 3 3 3 3 2 2 2 3 3 3 3 3 3 3 3 3 4 4 5 9 4 8 6 7 8 9 7 7 5 1 1
7 7 7 7 6 5 5 4 3 3 3 3 3 3 3 3 4 5 2 2 1 2 2 2 2 3 3 3 5 4 2 1 4 5 4 4 4 5 4 2 1 1 1
7 7 6 6 5 4 5 3 3 2 3 3 3 3 4 5 4 4 6 13 11 11 10 8 4 2 7 11 10 11 11 11 10 3 3 4 4 4 3 2 2 1 2

GFSMW_con_lsi_072.txt.gz
Lid_Strength_Index
6 5 5 4 4 3 2 1 1 -0 0 1 1 1 1 0 0 -0 -1 -1 -1 -1 -1 -0 -0 -0 0 1 1 1 1 1 0 1 1 1 0 -0 -0 -1 -1 -1 -1
6 6 5 4 3 3 2 2 2 1 0 0 0 1 1 0 0 -0 -1 -1 -1 -1 -1 -0 -0 -0 0 0 0 0 1 1 0 2 2 4 2 1 0 -0 -0 -1 -1
6 7 5 4 3 3 3 2 1 1 -0 -0 0 1 0 1 1 1 0 -0 -1 -1 -1 -1 -0 -0 0 1 0 0 1 2 1 0 2 4 5 2 1 1 0 -0 -0
5 4 4 5 4 3 3 2 1 1 1 -0 -1 -0 1 2 1 1 0 -0 -0 -0 -1 -0 -0 -0 -0 -0 0 0 0 1 2 1 1 1 1 4 4 1 1 0 0
3 4 4 3 3 3 3 2 1 1 0 -1 -0 1 1 1 0 0 0 0 -0 -0 -0 -0 -0 -0 0 -0 -0 0 0 1 1 2 2 2 2 1 3 5 3 1 0
3 3 3 2 2 1 1 1 1 0 -0 -0 -0 0 1 1 1 1 1 1 1 0 -0 -0 -0 -0 -0 -0 0 0 0 1 1 1 1 2 3 3 3 4 3 2 1
3 3 3 2 2 2 1 1 1 1 0 0 -0 0 0 0 1 1 1 1 1 1 0 0 0 0 0 -0 -0 0 0 0 1 1 1 1 1 1 1 2 3 3 2
3 3 2 2 2 1 1 1 1 1 0 0 0 0 -0 1 1 0 1 1 1 0 -0 0 0 0 -0 -0 -0 0 0 0 1 1 1 1 1 1 1 2 2 3 3
3 3 2 2 2 1 1 1 1 1 1 1 0 0 0 0 1 0 0 0 0 0 -0 -0 0 0 -0 0 0 1 1 1 0 1 0 1 1 0 0 1 1 2 4
3 3 2 2 1 1 1 0 1 1 1 1 1 1 0 0 0 1 1 1 0 0 0 1 0 0 0 0 0 0 0 1 1 1 1 1 0 0 0 0 1 1 2
3 3 2 2 1 1 1 1 1 1 1 0 0 0 1 1 0 1 1 1 0 0 0 0 1 1 1 0 1 0 1 1 1 0 1 1 0 1 1 0 0 1 1
3 3 2 2 2 2 1 1 1 1 1 0 0 1 1 1 1 1 1 0 0 0 0 0 1 1 1 0 1 1 1 1 1 1 1 1 1 1 0 1 0 1 0
3 3 2 2 2 2 1 1 1 2 1 1 1 1 1 1 1 1 1 0 0 0 0 0 1 1 1 1 0 1 1 1 1 1 1 1 1 1 1 1 1 1 1
3 3 3 2 2 2 1 1 1 1 1 1 1 1 1 1 1 1 1 1 0 0 0 0 1 0 1 1 0 1 1 1 1 0 1 0 1 1 1 1 1 0 1
4 3 3 3 2 2 2 1 1 1 1 1 1 1 1 1 1 1 1 1 1 1 1 1 1 0 1 1 1 1 1 1 1 1 1 0 1 2 1 1 0 1 1
4 3 3 3 2 2 2 1 1 1 1 1 1 1 1 2 2 1 1 1 1 1 1 1 1 1 1 9 8 2 1 1 1 1 1 0 2 2 4 4 5 2 1
4 3 3 3 2 2 2 2 2 1 2 2 1 1 1 2 3 1 1 2 2 1 1 1 1 1 1 10 10 7 1 1 1 1 1 1 0 1 0 5 6 5 5
4 3 3 2 2 1 1 2 3 4 4 3 2 1 2 3 3 2 2 2 1 1 2 1 1 1 1 11 10 8 0 1 1 0 0 0 0 0 0 0 1 0 0
3 3 2 2 1 2 2 4 5 6 5 4 2 2 2 3 4 2 2 2 2 2 2 1 1 2 2 12 10 4 1 1 1 0 0 0 0 7 8 1 1 1 1
3 3 2 2 2 2 3 5 5 5 4 3 3 2 3 4 4 2 2 2 2 2 2 2 1 4 1 12 10 4 1 1 1 0 0 8 3 11 10 1 1 2 2
2 2 2 3 3 3 4 5 5 5 5 4 2 3 4 3 2 2 2 2 2 2 2 2 2 1 2 8 11 10 1 1 1 1 1 1 10 11 10 9 1 2 1
3 3 4 4 4 4 5 5 5 4 4 3 4 3 3 2 2 2 2 2 2 3 3 3 2 2 3 8 10 11 7 4 1 1 1 1 11 11 10 6 10 10 5
4 4 5 5 5 5 5 5 4 4 3 4 3 3 2 2 2 3 3 3 3 3 3 3 4 4 2 2 11 11 10 8 1 1 4 11 12 12 10 11 11 9 1
6 6 6 6 6 5 5 4 4 4 4 3 3 2 3 3 2 3 3 3 3 3 3 3 3 3 2 2 1 1 1 7 3 6 3 5 6 8 5 6 6 1 1
7 7 7 7 6 5 4 3 3 3 2 3 3 3 3 3 3 4 3 3 2 3 3 3 2 2 3 2 3 2 1 1 2 2 2 2 3 3 3 3 1 1 1
7 7 7 7 6 5 4 3 2 1 2 3 3 3 4 5 4 4 6 12 9 10 10 8 3 1 7 10 10 11 11 11 9 2 2 3 3 4 3 2 2 1 2

GFSMW_con_lsi_075.txt.gz
Lid_Strength_Index
3 3 4 3 3 2 2 1 1 -0 0 1 1 1 2 1 0 -0 -1 -1 -1 -1 -0 -0 -0 -0 0 0 -0 0 1 1 0 1 1 1 0 0 0 -0 0 -0 -0
3 3 4 4 3 3 2 2 2 0 0 0 0 1 1 0 0 0 -0 -1 -1 -1 -1 0 -0 -0 0 0 0 1 1 1 0 2 2 4 2 1 1 0 0 -0 -0
4 3 4 3 3 3 3 2 2 1 0 -0 0 0 0 1 1 1 1 0 -0 -0 -0 -0 0 -0 0 1 0 1 1 2 1 1 2 4 5 3 2 1 1 0 0
3 3 3 3 4 3 3 2 1 1 0 -1 0 0 2 2 1 1 1 0 -0 -0 -0 -0 -0 -0 0 0 1 0 1 1 2 1 1 1 2 5 4 2 1 0 0
3 3 3 2 2 3 3 2 1 0 -0 -0 0 1 1 1 0 1 1 1 -0 -0 -0 -0 -0 0 0 0 0 0 1 1 1 2 2 2 2 2 4 5 4 1 1
3 2 2 1 1 1 2 2 1 0 -0 -0 -0 0 1 1 1 1 2 1 1 1 0 0 -0 -0 0 0 0 0 1 1 1 1 1 2 3 3 4 4 3 3 2
3 2 2 2 2 1 1 1 1 2 0 0 0 0 0 1 1 1 1 1 1 1 1 0 0 0 0 0 -0 0 1 1 1 1 1 1 1 1 2 3 3 3 2
3 3 2 2 2 1 1 1 1 1 0 0 0 -0 -0 1 1 0 1 1 1 0 -0 0 0 0 0 0 0 0 1 0 1 1 1 1 1 1 1 2 3 4 3
3 3 2 2 1 1 1 1 1 1 0 0 0 0 0 0 1 0 0 0 0 0 -0 -0 0 0 0 0 0 1 1 1 1 1 1 1 1 1 1 1 1 3 5
3 2 2 2 1 1 1 0 0 1 1 0 0 0 0 0 0 0 1 0 0 0 0 0 0 1 0 0 0 1 1 1 1 1 1 1 1 1 0 1 1 1 2
3 3 2 2 1 1 1 1 1 1 1 0 0 0 0 0 0 0 0 1 0 0 1 0 1 1 1 1 1 1 1 1 1 1 1 1 0 1 1 1 1 1 1
3 3 2 2 2 1 1 1 1 1 1 0 0 0 0 0 1 1 0 0 1 0 1 1 1 1 1 1 1 1 1 1 2 1 1 1 1 1 0 1 1 1 -0
3 3 2 2 2 2 1 1 1 1 1 1 1 1 1 0 1 1 0 0 1 1 1 1 1 1 1 1 1 1 1 1 1 1 1 1 1 1 1 1 1 1 1
3 3 3 2 2 2 1 1 1 1 0 1 2 1 1 1 1 0 0 1 0 1 1 1 1 1 1 1 1 1 1 1 1 1 1 1 1 1 1 1 1 1 1
3 3 3 2 2 2 1 1 1 1 1 1 1 2 1 1 1 1 1 1 1 1 1 1 1 1 1 1 1 1 1 1 1 1 1 0 1 2 1 1 1 1 1
4 3 3 2 2 2 2 1 1 1 1 1 1 1 1 1 1 1 1 1 1 1 1 1 1 1 1 6 7 2 1 1 1 2 1 1 2 3 4 5 5 2 1
4 3 3 2 2 2 1 2 1 1 1 1 1 1 1 1 1 1 1 1 1 1 1 1 1 1 1 10 9 7 1 1 1 1 1 1 1 1 0 5 6 5 6
3 3 3 2 2 1 1 1 1 1 1 1 1 1 1 2 2 1 2 2 1 2 2 2 1 1 1 10 10 8 1 1 1 1 1 1 1 1 1 1 1 1 0
3 3 2 2 2 2 1 1 1 1 2 3 3 3 3 3 2 2 2 2 2 2 2 1 1 2 2 11 10 5 1 2 1 1 0 1 1 6 7 1 1 1 1
2 3 2 2 2 2 1 2 2 2 3 4 4 4 4 3 2 2 2 2 2 2 2 2 1 3 1 13 11 4 1 2 2 1 1 9 2 10 9 1 1 3 2
2 2 2 2 2 1 1 2 2 3 4 4 4 4 3 2 2 2 2 2 2 2 2 2 2 1 2 5 10 11 1 2 2 2 2 1 11 12 11 9 1 2 1
3 2 3 2 2 2 2 3 3 3 4 3 3 2 2 2 2 2 2 2 2 3 3 2 3 2 1 7 12 12 7 5 1 2 2 4 12 12 11 6 11 10 5
4 3 4 3 3 3 3 5 5 4 4 3 3 2 2 2 2 3 4 4 3 3 3 3 4 3 2 3 12 11 10 8 2 1 7 12 12 11 8 10 11 8 1
5 5 5 5 5 5 4 5 4 4 5 4 4 4 4 4 2 4 4 3 3 4 4 3 4 3 3 3 1 3 3 7 4 7 3 5 5 6 4 4 5 1 1
6 6 6 6 6 4 5 4 5 5 5 4 4 5 5 4 4 4 3 3 2 3 3 3 3 3 3 2 4 3 1 1 3 2 1 2 2 2 2 2 1 1 1
7 6 6 6 6 5 5 5 5 5 4 5 4 4 4 3 4 5 8 14 12 12 11 8 4 2 7 11 11 12 11 10 9 2 2 3 2 3 2 2 2 1 2